[Date Prev][Date Next][Thread Prev][Thread Next] - [Date Index][Thread Index][Author Index]
2 Line ISS Keps 12-22
- Subject: [sarex] 2 Line ISS Keps 12-22
- From: "Dave Larsen PhD" <doc@xxxxxxxxxxx>
- Date: Mon, 22 Dec 2003 02:24:40 -0800
ISS
1 25544U 98067A 03356.14003472 .00025853 00000-0 25438-3 0 9200
2 25544 51.6286 151.4953 0006057 282.6852 56.1884 15.65797316290383
----
Via the sarex mailing list at AMSAT.ORG courtesy of AMSAT-NA.
To unsubscribe, send "unsubscribe sarex" to Majordomo@amsat.org
AMSAT Home